Wind_Speed
13 13 13 12 13 14 15 15 15 16 16 16 17 17 17 17 17 17 17 16 16 15 15 14 12 11 10 11 11 12 13 11 9 7 8 9 6 9 12 7 6 6 9 11 11 10 7 7 13 14 7 4 4 3 5 7 4 4 3 2 3 3 3 3 5 5 5 5 6 6 5 7 4 3 1 2 4 4 4 3 2 3 5 4 11 18 22 25
13 13 13 13 13 14 15 15 16 16 16 17 18 18 18 18 18 18 18 17 16 16 14 13 11 10 9 10 10 10 11 11 8 8 11 9 4 9 14 11 7 6 9 11 13 12 5 5 7 4 3 3 4 4 3 4 4 4 2 3 4 4 3 4 6 6 6 7 7 6 6 7 5 4 2 2 2 3 6 4 3 5 4 8 15 19 22 25
14 14 13 13 13 14 15 16 16 17 17 17 18 18 18 19 19 19 18 17 17 15 13 12 10 8 8 8 8 8 10 7 4 7 6 6 10 11 13 13 9 8 9 10 11 11 9 8 9 5 2 4 4 5 4 3 4 4 4 3 4 5 4 4 6 7 7 8 8 6 5 5 5 4 2 3 3 3 5 3 4 7 6 10 14 16 20 23
14 14 14 13 14 15 16 16 17 17 17 17 18 18 19 19 19 19 19 17 16 14 12 10 8 6 6 7 5 6 7 3 2 5 2 3 9 13 15 15 11 9 10 11 12 11 10 11 10 5 3 5 4 4 4 4 4 3 5 5 5 6 4 4 7 7 8 9 8 6 5 4 5 3 2 5 5 1 3 4 5 9 8 10 12 13 17 19
15 14 14 14 14 15 16 17 17 18 18 18 18 18 19 20 20 20 18 16 15 13 11 8 5 5 5 4 3 5 5 2 2 4 2 3 6 12 16 15 12 11 10 11 12 8 8 9 5 2 2 4 4 2 4 6 2 3 3 9 9 6 5 6 7 9 8 7 7 7 5 4 4 3 4 7 5 3 5 4 6 8 7 7 11 13 12 14
15 14 14 14 15 16 17 17 18 18 18 18 18 19 20 20 21 20 18 16 14 12 9 5 4 3 3 1 2 4 2 1 4 4 2 2 7 12 14 14 13 12 11 12 9 5 5 4 2 1 2 4 6 5 7 9 1 5 1 7 9 7 8 7 7 9 8 8 8 7 5 4 5 2 5 7 5 5 5 7 7 6 6 4 8 13 11 11
15 15 14 15 16 16 17 18 18 18 18 18 19 19 20 21 22 20 17 16 13 9 5 3 2 2 2 1 1 2 2 4 7 4 3 4 8 12 13 14 14 13 13 10 6 4 4 2 1 2 3 4 6 7 8 9 2 9 5 7 9 8 10 10 9 9 9 9 8 7 5 5 6 4 5 6 5 5 7 9 7 6 5 3 5 9 10 12
16 15 15 16 16 17 18 18 18 19 19 18 19 19 20 21 22 19 17 16 11 6 2 1 1 1 1 1 1 3 0 5 5 5 6 6 9 11 13 15 14 14 14 11 8 4 2 3 4 3 3 5 3 5 6 7 5 9 8 8 8 8 10 10 9 9 8 7 6 8 7 7 8 5 5 6 5 5 8 8 7 6 5 4 5 6 6 11
16 16 16 17 17 18 18 19 19 19 19 19 18 19 19 21 21 18 16 14 8 3 1 1 0 1 1 0 1 3 3 4 4 8 7 6 10 12 13 14 15 15 12 11 10 5 1 2 5 3 3 6 4 6 7 4 3 3 7 10 8 8 10 10 9 9 8 5 7 9 6 6 7 4 3 6 6 7 8 8 6 5 5 4 4 5 5 6
17 17 17 18 18 19 19 19 19 19 19 18 18 18 19 20 20 16 15 12 6 1 2 2 2 3 2 1 2 2 4 4 7 9 7 6 10 13 13 12 15 15 10 8 9 7 5 5 6 4 5 6 5 7 7 2 2 4 4 9 9 10 8 8 9 8 6 5 8 9 6 6 5 3 3 5 6 9 9 8 6 6 5 5 4 4 5 5
17 18 18 19 19 20 20 20 20 20 19 18 18 17 18 20 18 14 13 9 3 2 3 3 3 3 2 2 3 2 5 7 10 8 6 5 8 12 13 12 14 16 10 6 9 12 11 11 9 4 4 4 6 8 6 4 5 4 3 2 2 4 4 6 9 7 5 3 7 9 5 2 2 3 5 6 8 10 10 8 7 6 5 5 5 4 4 4
18 19 19 20 20 21 21 21 20 20 19 18 17 16 18 18 15 12 10 6 2 3 3 3 4 3 2 2 4 7 6 9 9 8 6 5 4 7 10 10 12 14 12 6 9 14 12 13 8 4 4 2 5 5 5 7 8 6 3 4 2 3 2 3 5 7 6 4 6 8 4 0 3 6 6 8 10 10 11 9 8 7 6 5 5 4 3 4
19 19 20 21 21 22 22 22 21 20 19 18 16 16 17 16 12 9 8 4 2 3 3 3 4 2 2 1 8 7 6 10 9 8 7 7 3 5 9 9 9 12 13 9 10 12 13 15 8 4 4 1 3 4 5 7 6 7 3 6 3 3 2 7 2 6 6 4 8 8 2 4 7 9 6 10 11 11 11 9 9 7 6 5 4 4 3 3
20 20 21 21 22 22 23 23 22 20 19 17 15 14 15 12 9 8 7 4 1 2 3 3 2 2 2 4 11 8 6 9 12 13 11 7 4 6 8 10 10 12 14 13 14 13 14 15 9 4 2 1 3 4 6 5 3 5 5 3 3 2 3 7 2 7 6 3 6 7 2 6 8 9 7 10 11 13 11 9 10 8 6 6 5 5 4 4
21 21 21 22 22 23 24 23 23 21 19 16 14 14 13 9 6 6 6 4 2 1 3 2 1 1 1 7 11 9 8 7 17 20 12 9 9 8 10 13 13 15 15 15 15 13 12 11 7 2 3 3 3 4 5 5 3 1 1 4 1 4 4 6 5 9 8 3 4 5 1 5 7 9 8 8 10 13 11 9 10 8 8 7 6 6 5 5
21 22 22 22 23 24 24 24 24 22 19 16 13 13 10 5 4 4 4 3 2 1 2 3 1 1 1 5 7 7 4 9 19 22 16 10 11 10 12 12 11 14 14 11 10 10 9 7 3 2 2 3 4 3 4 4 4 1 2 4 3 4 4 3 5 7 8 5 4 4 3 2 4 7 6 6 10 12 10 9 10 9 8 8 6 6 6 5
21 22 23 23 24 24 24 24 24 23 19 15 13 10 6 3 2 2 3 3 2 0 0 2 3 2 2 6 6 5 5 9 14 19 19 13 11 12 13 9 6 9 8 7 7 8 5 3 1 2 1 1 2 4 3 3 5 4 0 3 3 4 5 3 3 5 4 6 7 6 4 3 4 6 7 8 11 12 10 10 10 8 7 6 6 6 6 6
22 23 23 24 24 25 25 24 24 23 19 14 11 9 4 2 0 0 2 2 2 3 3 3 2 1 2 5 4 4 4 10 12 14 17 14 11 12 11 7 4 4 1 4 4 3 1 2 1 1 3 1 2 4 2 5 5 4 1 1 3 2 5 6 4 4 7 7 7 7 5 7 4 6 9 8 10 11 10 10 9 8 8 7 7 7 6 7
22 23 24 25 24 25 25 24 24 22 19 14 9 7 4 1 1 1 1 2 1 1 2 2 3 1 1 4 6 6 6 13 11 10 15 13 10 8 8 7 4 5 2 1 3 2 2 2 2 0 3 3 4 6 8 9 7 6 3 2 3 4 4 6 5 6 11 7 5 8 7 5 5 9 10 9 8 9 9 9 7 7 7 6 6 6 7 8
22 23 24 24 24 25 24 24 24 21 18 13 8 5 1 0 1 1 1 2 4 6 4 5 6 3 5 5 4 5 7 12 8 8 15 13 8 4 3 3 3 3 3 3 3 3 3 2 3 5 7 9 9 10 11 12 10 7 4 4 5 4 4 6 5 4 9 7 7 10 6 5 9 11 10 9 6 7 9 8 7 6 6 6 7 7 8 8
23 23 24 24 24 24 24 24 22 18 14 10 6 2 1 1 1 1 2 4 8 10 9 9 9 8 11 10 9 7 2 5 4 7 15 14 6 3 2 2 4 1 4 4 2 2 3 4 7 9 11 11 11 10 10 10 9 7 6 7 6 4 4 7 7 5 7 6 8 7 6 5 10 10 9 9 8 8 10 9 8 8 6 5 6 7 8 5
24 23 24 24 24 23 23 23 22 18 12 7 4 1 3 4 3 2 3 4 7 10 12 11 8 10 15 17 20 15 5 2 3 4 11 11 5 3 2 2 5 4 4 2 1 2 1 5 12 12 10 10 10 10 10 9 7 5 6 6 5 4 2 5 4 5 8 6 6 5 7 5 6 6 7 8 9 9 8 10 10 9 8 6 8 8 7 4
24 24 24 23 23 23 22 22 20 16 9 6 5 5 4 4 4 8 5 2 6 6 9 9 7 8 11 14 18 13 5 4 4 5 11 11 4 5 4 2 6 5 2 3 4 3 3 8 14 13 9 9 11 12 9 7 6 5 6 4 5 4 1 3 4 3 6 3 2 5 6 2 3 4 3 4 5 5 5 8 7 8 9 9 10 8 6 7
25 24 23 23 22 20 20 20 14 9 7 5 9 8 6 6 8 12 6 0 5 4 7 10 7 5 10 10 9 8 6 6 5 6 12 11 4 4 4 4 5 3 4 7 8 6 8 11 11 8 9 10 11 11 8 6 6 5 6 4 5 7 4 4 3 3 2 2 2 5 6 4 3 2 4 2 2 4 5 7 6 7 7 6 7 7 6 7
26 24 22 22 20 19 19 14 4 7 10 6 8 13 14 10 8 6 2 2 4 5 4 8 6 6 12 9 7 7 5 6 5 8 13 13 8 4 3 4 4 5 8 7 6 6 12 15 8 6 9 10 10 10 8 8 5 4 5 6 7 10 5 6 6 5 3 4 3 4 5 4 4 2 5 2 3 5 5 7 9 9 6 6 6 7 6 6
26 23 21 19 18 18 14 4 2 9 10 5 8 20 15 5 2 1 2 3 3 4 2 4 4 7 9 6 5 3 3 5 6 12 15 14 13 7 3 3 1 5 7 5 5 3 8 13 9 9 10 9 10 10 8 7 3 3 5 6 6 6 4 9 8 5 4 3 4 4 5 2 4 3 5 3 5 7 5 6 8 7 6 6 6 6 5 6
26 22 19 17 17 16 8 0 5 8 4 5 11 17 11 2 0 3 3 4 3 3 3 1 1 6 7 7 8 5 2 4 2 9 14 15 11 5 3 4 1 3 2 1 3 3 5 8 6 8 9 6 7 7 7 5 5 4 6 4 4 3 8 11 8 4 3 2 3 3 6 3 2 4 3 1 4 5 5 5 6 5 5 5 5 6 6 6
25 21 17 14 14 12 6 3 7 5 2 8 12 12 12 7 2 3 4 2 1 1 3 1 1 5 4 5 9 6 4 3 2 4 10 15 10 4 3 6 2 5 4 2 4 7 4 6 7 7 6 3 4 6 6 5 4 7 6 2 3 4 11 11 8 4 3 3 2 4 3 4 2 4 2 3 3 5 6 7 6 6 7 7 6 6 6 6
24 19 15 13 11 7 5 5 4 4 6 9 9 10 12 8 4 4 4 1 1 1 1 1 2 3 0 2 7 7 5 2 2 3 4 9 7 3 4 7 4 6 6 4 6 8 6 7 8 6 3 4 6 7 5 6 3 7 4 2 3 4 7 7 7 5 3 3 3 6 2 4 2 3 2 3 4 6 7 6 5 7 8 8 7 7 7 6
22 18 14 11 7 3 3 4 3 5 9 9 8 9 8 6 5 5 3 0 1 2 0 1 1 2 4 4 4 6 5 0 1 3 4 2 2 1 1 3 2 3 5 3 6 8 8 8 5 4 4 6 6 5 5 8 6 3 1 3 5 4 4 4 2 4 4 1 5 6 6 5 1 3 4 4 5 7 7 4 5 6 7 7 6 6 7 6
20 16 13 10 5 2 2 1 2 5 7 8 8 6 5 4 4 4 1 1 2 2 0 1 3 4 8 8 4 4 4 0 3 6 4 2 0 2 2 2 1 2 4 4 5 6 7 7 4 4 5 5 4 3 3 3 2 4 2 2 3 4 5 5 4 4 3 2 6 4 4 6 3 4 6 6 7 7 9 7 8 8 7 8 6 5 6 6
17 14 11 7 5 7 6 2 2 3 3 6 7 4 5 4 2 1 1 3 2 2 2 3 4 4 8 8 5 5 4 2 4 6 6 4 3 2 3 3 3 1 3 4 4 6 6 6 6 5 5 4 4 2 5 5 4 4 3 4 3 2 4 3 4 2 1 3 6 2 5 4 1 5 6 8 7 8 10 9 9 10 9 9 7 5 5 6
15 11 7 4 5 8 7 3 2 2 4 6 5 4 5 4 0 3 3 3 1 3 2 2 4 4 8 6 4 5 4 3 6 5 5 5 4 4 5 6 6 4 2 3 2 4 5 8 7 4 5 3 6 3 2 3 2 1 1 3 4 2 1 2 3 1 1 3 5 2 5 2 3 4 6 8 8 9 9 8 8 10 10 9 7 6 5 5
12 8 4 2 4 6 6 4 1 2 5 6 4 4 5 3 3 4 2 2 3 3 3 1 5 4 6 6 5 6 4 3 7 7 5 5 3 3 5 6 6 6 3 1 1 2 2 7 6 4 5 4 6 7 6 4 2 3 4 5 4 3 3 3 3 3 3 2 3 3 3 2 3 3 5 5 5 6 6 5 6 6 6 7 6 5 5 5
9 6 5 4 5 4 3 3 4 1 3 4 5 5 3 2 4 2 2 4 3 3 7 2 6 6 5 5 5 7 5 4 6 6 5 6 5 5 4 5 8 6 4 1 3 4 3 6 8 5 5 8 7 5 6 6 1 4 2 5 1 4 5 2 3 5 4 1 2 3 0 3 4 3 2 3 4 4 4 4 5 5 4 5 5 5 5 5
6 5 5 6 5 1 3 6 8 5 1 4 6 3 2 4 3 1 2 4 3 4 8 5 3 3 2 3 3 5 4 3 4 4 3 5 5 6 6 5 8 9 7 4 3 2 2 6 7 2 2 9 9 5 6 6 2 1 2 2 4 5 7 4 1 0 4 4 1 1 1 3 2 3 4 4 4 4 4 4 6 5 4 4 5 5 5 5
7 6 4 5 5 2 6 9 10 6 3 6 4 1 3 3 3 1 4 4 3 3 5 5 2 2 2 2 3 4 3 3 3 4 4 4 4 7 8 5 6 12 12 8 4 3 3 5 7 1 3 9 8 7 5 6 6 4 2 5 4 1 4 3 1 2 4 3 2 1 2 2 1 1 2 1 3 4 4 4 5 4 5 5 5 4 5 6
7 6 4 5 5 5 8 9 9 5 4 6 1 3 2 3 3 3 5 4 2 3 5 2 0 2 3 1 4 5 2 2 3 3 3 3 4 6 9 6 5 11 15 12 5 3 4 3 8 5 4 5 3 4 2 4 2 4 4 3 2 2 2 1 2 0 1 2 1 3 2 2 3 3 4 6 7 6 6 5 5 5 6 6 5 4 5 5
6 4 3 2 5 8 10 10 7 4 5 4 1 2 2 4 6 6 7 4 1 3 3 1 2 1 2 1 2 4 2 2 3 4 2 4 4 5 7 5 5 11 14 12 7 3 3 2 5 7 3 0 2 2 2 5 5 2 1 1 1 3 3 2 2 3 3 2 2 1 3 2 5 5 6 9 9 8 7 6 6 7 7 6 5 5 5 6
3 3 1 6 11 11 11 9 3 5 4 1 3 3 3 4 6 8 7 4 1 2 1 2 2 1 2 2 2 2 2 2 2 3 3 4 4 4 5 5 5 7 9 12 9 4 1 2 4 6 5 1 2 2 5 5 2 1 2 2 2 1 1 1 0 2 4 4 3 2 1 5 6 4 6 9 9 8 8 8 7 7 6 6 5 6 6 5
3 4 2 10 13 11 10 5 3 3 2 2 3 3 3 3 4 6 5 4 2 2 3 3 3 2 2 2 2 2 2 2 2 2 3 3 3 3 4 6 5 3 4 9 7 4 2 3 3 3 4 1 4 5 4 4 4 4 3 2 3 1 1 2 1 2 3 4 4 4 2 6 6 4 6 7 7 7 8 8 7 6 6 6 6 6 5 5
2 2 2 10 14 11 8 3 2 2 2 2 3 5 6 5 3 5 5 4 4 2 0 1 2 2 2 1 2 2 2 2 2 1 3 4 3 4 3 3 4 3 2 5 4 4 3 3 2 2 3 4 7 5 1 2 1 5 3 2 2 2 3 3 3 3 2 3 2 3 2 5 6 4 5 5 5 6 7 8 7 5 6 7 6 5 5 5
2 2 3 7 16 9 6 2 3 2 2 5 5 5 6 5 3 5 5 3 3 3 3 2 2 3 3 3 2 3 3 2 2 1 3 4 4 4 7 10 10 6 1 2 1 1 1 3 2 3 4 4 6 4 3 4 5 5 1 2 1 1 1 3 4 3 3 2 1 3 1 5 6 2 3 5 5 5 6 7 8 6 5 6 6 6 5 5
1 4 4 1 8 6 4 2 4 5 4 5 6 7 6 5 7 8 6 3 3 2 2 2 2 3 3 3 3 4 4 2 2 2 3 3 5 8 14 17 16 8 2 3 3 2 0 2 3 3 4 5 7 7 6 7 4 2 2 3 3 1 4 4 2 4 3 3 4 4 2 6 5 1 3 4 5 6 5 6 8 7 6 6 5 5 5 5
2 2 3 7 5 2 2 1 3 4 5 6 7 8 9 7 7 9 7 3 3 2 1 2 3 4 3 4 4 5 5 3 3 4 7 6 7 7 13 16 12 9 8 4 4 6 2 1 4 5 3 1 1 3 4 4 3 2 3 5 6 4 5 2 1 4 2 4 3 5 5 5 4 1 4 5 6 7 5 5 7 7 7 7 6 6 5 5
3 2 3 6 7 6 1 2 4 4 5 6 5 5 7 5 6 9 8 5 6 6 2 2 7 8 6 6 6 6 8 7 6 6 6 7 7 5 10 13 9 13 18 13 5 3 4 2 3 7 6 5 6 6 5 1 2 4 7 8 7 6 4 2 2 2 3 3 2 5 7 3 2 5 6 6 6 7 7 6 7 7 7 7 7 7 7 6
2 2 3 3 4 4 3 4 6 5 6 5 3 4 5 5 5 7 8 6 7 10 6 6 11 11 7 6 4 5 8 7 8 9 7 6 6 7 10 11 9 17 21 16 11 4 4 1 1 7 6 6 8 8 4 1 2 4 7 9 8 7 6 4 3 4 5 5 3 7 6 6 7 9 9 8 8 7 7 8 9 8 8 7 7 7 8 7
3 0 2 2 2 2 3 5 6 7 9 7 2 3 5 7 6 6 7 6 7 12 8 6 12 14 11 8 3 3 7 6 7 8 7 7 8 10 12 8 6 14 16 12 11 4 5 1 4 5 3 5 6 5 1 2 2 3 5 8 8 7 7 5 7 5 7 6 6 7 9 9 9 9 10 11 11 10 9 8 9 9 8 7 7 8 8 8
4 2 3 3 1 2 2 7 8 7 8 7 4 4 5 8 8 6 6 6 7 11 9 7 11 14 14 10 4 3 5 4 4 6 6 8 9 7 9 7 4 10 12 9 8 5 3 2 4 3 3 5 6 5 3 5 5 5 6 8 8 7 6 5 7 5 5 7 7 10 13 10 7 9 13 12 9 8 7 7 8 10 9 9 9 9 9 8
3 1 4 4 3 4 4 5 6 4 5 5 4 6 6 8 10 7 5 6 7 8 9 9 10 11 11 9 6 5 4 3 2 4 5 8 8 4 4 4 5 11 12 6 6 6 4 4 5 1 1 4 5 2 3 6 6 4 7 8 7 6 7 6 7 7 4 3 2 9 11 7 5 8 11 7 6 7 7 9 10 10 10 10 10 9 9 9
5 3 3 2 2 4 3 5 6 4 4 5 5 6 7 9 10 6 4 6 6 6 8 10 10 8 8 9 7 5 4 3 2 3 4 4 5 3 3 4 5 9 9 5 5 5 4 3 5 5 4 5 5 2 5 7 6 5 7 7 6 6 5 5 6 7 5 1 5 7 7 6 7 6 5 5 8 9 9 10 10 9 10 11 10 10 10 9
11 5 5 2 1 4 4 4 6 5 4 6 7 7 7 8 10 7 4 5 7 7 7 8 8 6 5 8 7 3 5 3 3 5 5 5 7 6 6 7 8 7 6 4 4 3 2 3 3 3 3 5 6 3 5 6 6 5 5 5 4 5 6 6 6 8 4 5 8 6 7 7 6 6 6 6 8 9 9 10 10 9 10 11 11 10 9 10
Wind_Direction
353 351 348 347 350 350 346 345 347 346 347 346 345 345 343 342 338 336 331 326 324 320 319 315 312 316 323 326 321 319 316 310 299 269 241 256 260 201 192 180 168 181 198 212 232 243 260 249 246 244 235 247 242 235 212 207 183 157 183 174 193 183 167 180 173 175 152 155 181 193 163 132 170 231 216 26 55 90 78 45 71 19 7 133 158 148 138 136
350 349 348 348 348 347 345 344 344 344 345 344 344 343 341 341 337 334 329 325 322 318 318 313 311 320 323 327 322 321 320 313 300 269 252 248 213 189 196 192 182 183 189 207 230 230 234 248 262 263 189 220 244 241 236 201 168 166 158 120 188 199 172 176 157 154 149 155 172 179 161 146 169 189 169 93 105 104 91 57 73 83 80 144 152 145 141 140
344 344 343 345 345 343 342 340 342 341 342 343 342 341 340 338 335 333 328 324 320 318 318 311 314 324 325 328 322 323 324 326 303 262 258 227 212 202 187 191 199 201 205 220 239 231 226 257 298 332 256 248 232 237 256 211 184 179 137 103 205 185 156 175 150 148 155 148 151 165 170 160 173 173 126 132 130 85 119 136 118 127 142 147 147 147 145 146
343 340 338 342 341 338 338 337 339 337 339 341 339 340 338 336 334 331 328 324 320 318 314 312 321 325 328 327 320 330 331 349 291 251 247 211 208 198 188 195 199 201 219 237 250 248 251 275 301 312 270 273 248 231 245 216 202 170 141 150 186 162 137 186 163 150 152 146 151 153 145 154 180 166 117 131 114 67 200 203 165 154 160 150 145 150 151 155
346 341 339 340 338 335 335 335 335 335 337 338 338 338 337 336 334 331 328 324 320 316 312 315 325 327 327 320 317 331 347 40 266 259 255 234 197 187 188 190 196 205 219 239 251 264 274 273 275 273 254 260 271 275 255 245 202 95 148 154 161 158 147 192 174 152 152 137 135 138 146 160 159 148 153 145 135 210 208 198 193 164 155 158 152 156 161 165
351 348 346 341 337 334 333 333 333 332 334 335 337 336 337 336 333 331 327 323 319 311 310 317 326 324 309 307 348 335 20 106 266 272 261 194 171 180 182 184 194 204 216 233 247 275 282 255 220 258 268 276 298 295 274 271 184 103 141 144 156 173 152 177 178 160 151 130 143 159 170 147 126 158 175 161 180 218 183 166 185 165 157 181 165 163 169 172
354 354 351 345 340 336 333 333 331 331 332 333 335 334 335 335 333 331 326 325 317 307 311 319 322 300 272 129 35 11 101 249 265 251 230 170 155 171 178 188 194 199 212 218 216 237 267 285 300 268 270 281 284 276 282 299 51 114 150 166 171 179 152 162 172 167 153 148 166 156 137 141 149 175 164 176 217 198 155 158 167 159 161 157 152 158 168 175
355 355 352 348 343 339 336 333 331 331 330 331 333 333 334 334 333 329 326 326 317 309 318 331 321 252 205 136 358 11 195 260 247 187 197 174 154 162 171 184 193 197 202 203 198 211 280 313 283 265 273 271 267 288 314 333 20 101 150 177 171 172 158 155 157 160 155 156 154 130 142 174 177 168 156 198 212 155 143 149 147 148 151 121 122 130 152 174
356 355 352 349 345 342 337 334 332 330 329 330 330 331 332 333 332 328 328 328 321 318 246 153 218 181 82 209 62 11 268 245 178 172 181 176 165 164 169 176 184 189 194 208 214 223 287 283 259 242 275 291 313 326 337 1 7 58 164 172 167 175 164 144 143 157 158 152 137 134 163 194 195 172 166 212 185 148 144 141 142 144 146 128 126 122 123 150
355 355 353 350 347 343 339 336 333 330 329 328 329 330 331 332 330 327 329 329 331 348 162 149 171 142 66 6 85 31 258 197 166 168 158 166 172 171 174 175 180 186 194 211 222 226 211 218 246 259 278 292 321 325 333 15 341 335 177 171 170 172 161 138 145 161 151 146 149 149 176 199 207 183 189 223 171 149 145 144 153 149 168 161 137 137 121 119
354 354 352 350 347 344 340 337 333 330 328 326 328 328 330 332 328 329 333 334 355 100 144 153 155 131 77 66 110 224 229 184 170 157 134 147 177 183 183 180 183 192 198 209 237 233 226 242 259 294 279 281 327 318 318 320 331 351 111 123 192 153 122 132 142 158 140 150 168 146 155 176 164 204 212 198 162 151 148 152 164 161 186 175 143 153 131 125
353 352 351 349 347 344 342 338 334 330 327 326 327 326 330 330 326 331 335 343 52 124 141 156 143 121 61 99 198 232 209 188 175 151 128 102 150 185 179 184 190 198 198 205 253 247 257 279 283 295 263 285 337 313 313 319 329 336 106 118 265 13 37 180 143 161 155 157 174 127 87 116 176 222 221 178 164 153 150 159 172 173 184 175 159 161 144 149
352 350 350 349 346 345 343 341 336 331 327 325 325 325 330 329 325 335 337 348 69 144 142 151 143 83 48 188 245 246 204 200 186 166 147 96 107 174 173 191 201 206 206 212 253 265 282 294 295 277 261 337 321 278 311 319 334 330 1 121 159 25 304 239 176 161 161 152 166 127 75 249 225 240 220 173 165 151 154 169 175 177 177 175 173 160 166 178
350 350 350 348 345 344 344 343 337 331 326 324 325 326 330 330 324 335 339 338 359 145 138 145 142 72 86 263 267 282 281 230 199 185 162 128 180 203 201 212 218 222 222 230 253 270 284 301 313 302 280 297 272 294 332 330 341 331 343 53 143 141 248 254 214 161 161 162 157 118 111 239 237 243 216 177 166 155 162 176 177 178 171 171 178 170 179 192
349 348 348 347 344 342 343 343 339 332 326 324 325 326 328 329 325 340 351 346 349 141 129 123 188 55 25 287 280 300 311 218 196 195 173 158 191 212 221 216 222 231 234 241 253 269 289 317 331 307 304 332 9 353 341 331 323 336 332 331 256 178 233 259 229 177 161 164 154 119 151 243 240 235 216 184 167 162 167 177 180 177 168 169 180 178 180 193
348 347 346 345 343 341 341 341 340 333 327 326 326 328 327 327 334 351 357 360 21 126 99 74 342 45 60 288 294 303 289 178 190 197 187 183 191 199 210 207 218 231 237 247 264 286 302 329 321 228 295 348 42 38 1 343 321 340 170 241 235 176 196 231 246 208 164 144 174 176 177 228 243 224 214 196 172 167 170 179 185 179 172 172 176 181 182 187
347 345 344 343 341 339 339 339 339 333 327 327 328 330 324 316 334 1 19 34 51 81 328 355 335 354 255 283 306 292 236 180 190 196 191 196 204 203 199 200 217 222 240 270 290 309 321 345 282 256 359 27 89 85 32 324 288 301 213 232 238 167 169 187 249 243 165 152 192 200 196 243 244 191 191 201 178 169 172 183 191 184 179 180 177 185 184 187
346 344 342 341 339 337 336 337 338 332 327 328 331 330 316 305 276 116 74 75 42 348 317 308 335 19 273 280 276 263 216 190 201 200 192 196 209 209 196 194 187 174 273 323 297 304 323 332 346 306 338 356 129 118 166 238 226 240 232 295 288 152 176 197 197 205 173 180 199 185 216 267 261 180 185 199 182 173 181 187 193 187 183 186 187 191 188 193
344 342 339 339 337 335 334 334 336 331 326 329 332 326 311 284 229 211 143 107 77 320 284 221 174 136 283 241 236 262 230 197 200 193 187 192 206 211 200 196 157 129 105 22 286 264 185 319 6 260 272 251 215 187 209 229 225 229 219 214 214 165 210 221 209 196 168 167 213 194 205 231 202 190 190 193 185 178 186 191 193 194 188 188 194 197 194 198
341 338 336 336 335 333 331 332 334 330 327 332 336 333 321 19 15 324 245 183 209 221 228 200 191 246 291 279 282 280 220 192 189 176 180 190 200 197 204 184 107 112 146 151 250 267 155 209 260 222 227 229 225 218 221 236 245 256 271 266 235 183 222 241 236 219 151 143 228 214 186 180 187 193 190 182 182 182 191 198 201 204 197 194 204 205 203 208
339 336 333 333 332 330 329 331 331 328 328 333 340 348 198 208 96 353 289 242 234 227 237 231 204 234 263 271 293 299 246 181 181 176 182 188 179 152 236 143 103 202 221 179 214 311 135 207 242 226 226 233 236 236 236 246 255 266 267 267 268 234 232 237 218 190 148 158 235 208 145 202 202 187 190 177 176 194 193 194 203 209 205 202 214 217 214 216
339 335 331 330 330 327 328 330 327 325 319 301 310 286 259 255 210 302 324 274 260 222 227 245 224 243 258 263 272 275 290 230 203 199 185 179 148 152 228 124 134 215 248 176 172 323 207 241 247 233 227 238 251 256 253 260 266 261 248 246 265 258 268 277 241 164 161 187 241 180 140 231 225 168 193 187 185 203 198 196 201 199 196 199 212 218 214 192
340 334 331 328 327 325 327 330 326 324 313 273 239 215 250 266 270 317 334 278 281 223 208 232 219 240 256 262 265 254 244 217 192 218 191 166 148 164 168 161 176 211 245 178 185 198 209 242 242 232 225 234 250 258 261 274 267 239 236 254 280 265 170 288 285 169 177 189 187 138 114 317 347 94 171 197 200 203 197 208 210 202 197 198 207 204 191 177
341 335 331 327 324 325 328 330 330 337 338 276 237 248 281 290 298 317 335 242 285 262 211 212 193 216 237 245 252 221 213 211 173 200 190 162 142 153 162 185 183 216 233 205 196 203 235 246 240 225 220 225 243 259 260 257 258 252 242 237 264 268 226 200 211 162 182 334 42 94 62 346 335 132 178 209 219 181 183 198 211 224 206 187 205 198 175 174
342 337 331 327 324 323 328 332 5 16 346 281 267 322 330 307 304 318 354 36 296 283 228 200 180 227 236 227 226 208 191 209 190 182 182 168 157 153 190 188 161 222 233 220 206 218 250 253 248 233 226 220 233 252 245 221 235 299 263 223 236 263 246 158 149 128 78 331 289 94 70 314 313 230 204 204 180 181 190 193 201 220 203 174 200 198 169 168
343 338 332 328 323 324 332 343 54 356 331 278 326 349 346 314 324 83 112 40 311 272 201 165 164 212 224 197 193 163 118 237 212 169 174 182 175 159 191 212 181 232 224 217 217 211 251 252 238 228 229 212 215 240 239 198 159 307 260 217 225 252 197 143 134 117 110 258 261 105 116 249 315 264 227 206 178 188 204 204 203 208 195 186 202 198 175 169
343 339 333 328 325 327 334 253 326 336 310 296 339 355 1 357 125 125 91 30 306 244 159 173 159 175 191 180 161 118 121 249 199 161 177 186 178 141 183 233 319 261 229 81 264 244 254 272 263 234 232 201 189 231 238 163 118 256 252 209 204 143 123 134 124 126 172 214 313 43 111 133 274 246 227 133 175 214 236 223 210 206 200 197 206 210 194 182
344 341 332 327 327 325 320 302 318 324 305 319 329 347 358 353 346 102 80 41 278 156 149 223 207 170 190 178 158 159 208 179 110 204 188 177 174 111 188 232 246 255 270 69 276 275 264 283 277 244 239 214 195 224 218 134 123 249 259 243 228 118 120 133 132 155 166 107 333 300 104 110 264 274 63 104 184 235 241 219 202 200 203 201 203 217 214 202
346 342 330 325 325 316 304 297 302 340 358 347 336 338 349 357 27 73 76 101 169 201 171 119 147 179 198 153 172 204 222 125 151 225 149 167 189 120 187 222 213 255 269 183 234 276 265 256 251 225 212 214 231 237 189 136 176 249 266 24 27 88 112 121 134 151 115 100 233 250 178 121 260 267 127 145 212 224 224 220 210 205 205 203 194 204 223 218
347 342 327 320 319 304 295 287 297 10 15 5 342 335 349 16 54 67 50 9 227 254 112 81 204 164 138 157 202 226 223 94 126 132 94 177 223 58 217 216 176 255 286 238 242 263 262 264 249 220 216 197 210 231 189 172 186 216 309 27 26 31 51 59 104 108 83 297 247 222 180 131 139 248 193 193 220 198 191 211 224 221 216 214 201 190 214 223
349 341 320 308 294 227 240 297 1 13 15 2 341 344 18 33 65 95 107 287 288 276 174 202 228 146 147 171 197 216 212 96 116 136 148 224 357 18 322 337 3 320 326 306 286 284 292 297 280 250 241 199 181 246 250 220 146 91 79 51 19 342 9 22 358 36 82 265 273 230 143 100 111 238 222 228 238 190 175 190 198 205 214 219 216 192 199 214
351 339 312 290 250 219 208 193 352 344 6 5 355 25 65 47 39 131 247 324 346 247 221 202 222 178 159 173 188 194 184 149 161 159 165 184 187 194 209 208 185 22 323 281 293 315 308 283 272 276 260 207 166 260 306 338 13 39 39 61 66 333 360 2 319 338 170 254 271 210 105 85 207 237 220 220 227 192 180 191 186 186 200 212 217 202 195 207
354 342 310 260 228 224 227 251 326 20 29 17 21 55 73 77 236 234 253 314 276 241 260 175 207 179 151 159 196 200 192 182 185 180 173 173 179 216 235 219 177 146 234 235 320 328 310 300 293 278 263 204 148 174 284 326 313 259 209 111 110 106 54 299 288 316 215 248 260 207 99 86 282 275 228 207 204 190 184 195 186 177 187 200 210 200 187 197
358 355 338 255 231 240 252 262 251 52 9 12 54 67 66 94 245 253 252 273 236 256 325 211 189 165 161 183 197 183 181 220 192 171 169 168 169 220 248 242 202 168 182 229 311 217 248 303 286 223 229 193 158 183 181 156 191 227 181 134 127 141 162 230 222 165 198 235 284 337 65 151 208 258 234 191 180 181 175 185 174 163 177 182 190 193 181 186
352 349 343 307 280 266 251 206 169 119 354 27 68 67 84 183 257 280 291 290 281 337 337 301 167 162 202 220 215 190 174 207 202 168 164 176 184 205 208 221 213 184 150 181 237 209 204 254 248 230 211 184 178 199 158 109 26 269 147 100 132 188 165 185 185 167 166 144 334 338 350 203 211 274 326 93 130 157 140 133 140 151 177 166 172 193 188 184
352 339 333 314 308 262 134 142 148 149 91 73 66 65 161 216 242 230 276 300 332 354 349 357 116 134 268 265 267 239 206 196 181 162 192 195 195 211 208 214 204 183 168 176 224 231 205 260 268 319 222 201 187 174 147 130 155 267 102 142 230 181 137 126 249 65 91 97 309 286 274 303 318 326 353 74 133 160 137 132 146 161 174 167 180 192 184 180
12 350 317 296 299 183 133 127 136 144 90 80 88 186 218 245 236 225 281 302 346 18 32 26 32 45 359 298 318 302 253 231 176 171 206 209 216 216 213 225 200 186 188 188 216 230 190 272 292 295 248 238 200 158 167 171 151 123 154 217 235 80 95 111 118 1 49 90 267 232 196 268 297 288 297 178 181 201 197 172 158 165 172 182 205 205 185 175
8 352 309 280 261 189 147 135 140 134 72 70 97 233 233 253 236 243 273 278 350 49 68 67 259 47 40 314 320 326 269 215 221 219 195 197 245 222 206 219 205 202 202 190 200 241 179 249 292 275 246 242 184 135 236 265 188 160 184 195 136 69 307 358 105 101 56 131 254 323 323 227 204 223 221 208 210 209 207 189 168 178 184 195 221 219 191 170
13 9 329 246 165 146 144 152 147 88 62 63 265 249 236 262 269 268 271 282 53 75 70 170 179 52 345 252 310 320 287 201 250 273 208 189 243 231 207 210 214 222 211 184 186 231 171 181 285 293 296 183 40 58 224 281 304 291 341 11 124 147 175 182 143 152 141 149 193 325 345 260 226 222 195 204 212 195 187 190 187 192 191 196 208 195 180 171
22 27 272 166 138 126 139 153 111 58 68 155 215 245 262 271 282 269 263 301 2 126 141 221 204 203 246 237 265 277 252 224 258 274 233 197 209 237 230 214 217 234 205 178 186 200 166 214 255 294 325 21 320 257 189 207 260 313 1 324 280 333 107 146 93 132 130 135 166 149 316 267 247 213 187 201 208 192 181 181 191 201 192 189 191 180 174 168
13 25 202 165 145 134 133 124 46 88 146 255 233 251 270 254 281 279 279 343 352 206 170 184 227 234 218 251 261 243 251 257 255 260 256 235 208 229 246 214 213 243 169 172 195 190 176 201 207 285 332 336 249 244 200 206 198 161 164 218 220 228 77 84 325 297 120 129 160 150 183 264 258 202 188 194 188 187 180 171 183 198 180 174 183 179 166 157
44 32 195 165 160 148 116 90 321 164 187 268 235 245 264 246 256 287 294 359 12 324 333 173 252 271 252 252 247 256 288 273 263 301 314 305 250 223 253 247 252 278 135 160 207 200 165 130 130 256 251 224 250 257 216 269 158 126 162 221 168 138 106 121 193 251 59 79 102 115 137 266 263 205 183 184 172 175 174 162 163 176 171 168 174 169 149 151
75 303 288 174 179 164 76 18 310 1 268 261 259 270 279 274 314 324 313 1 18 353 6 344 336 355 325 318 325 312 315 290 263 290 308 309 307 322 353 357 340 319 201 153 237 220 105 84 73 309 299 298 304 327 18 13 53 74 319 304 118 169 115 132 171 164 108 116 107 86 125 268 271 238 173 176 165 153 158 156 150 155 170 168 159 152 145 158
358 267 309 349 195 178 66 348 311 340 302 298 328 342 342 343 357 346 328 2 15 349 11 331 350 6 306 308 328 310 310 291 278 351 3 323 317 353 12 4 349 336 270 189 149 132 64 105 98 41 1 347 341 349 357 356 23 65 291 299 276 277 65 80 116 82 83 210 163 124 203 257 275 275 148 160 145 133 153 162 150 151 167 168 152 147 157 172
348 249 288 349 354 44 94 256 330 331 315 334 348 352 353 350 354 339 314 328 8 349 294 291 340 351 323 333 339 327 336 320 304 8 22 354 327 356 11 354 346 357 343 313 139 122 119 148 115 101 105 82 344 308 307 320 324 318 318 310 300 331 39 61 116 80 93 226 156 140 202 255 289 216 174 181 154 147 171 170 149 153 162 161 154 155 169 185
24 27 314 333 0 26 22 312 6 354 326 347 347 340 350 342 334 336 333 351 6 359 345 354 6 3 358 6 8 5 2 355 4 22 23 359 330 333 353 341 349 16 3 347 352 71 104 116 128 133 153 178 192 225 246 275 330 323 323 317 309 317 352 56 94 120 175 175 181 209 195 183 232 206 199 208 182 169 182 169 150 155 159 155 157 164 179 196
50 39 12 341 331 1 352 339 9 357 322 339 335 301 326 329 321 345 1 4 8 12 18 31 24 12 354 358 19 17 358 1 22 16 2 354 330 323 344 344 357 13 8 356 340 357 99 71 166 150 169 194 192 215 243 327 332 319 323 316 306 308 328 351 287 238 157 124 258 246 187 162 206 208 200 208 197 183 189 178 162 160 161 160 160 166 183 201
38 31 13 13 290 328 352 325 331 332 324 329 322 292 329 353 3 9 359 344 14 29 27 15 16 7 353 357 36 31 360 6 22 7 353 354 343 338 346 346 4 12 8 354 337 358 110 182 224 175 205 230 221 248 296 44 344 329 328 312 302 303 309 295 267 227 155 165 236 216 175 187 209 203 201 206 197 186 188 181 162 155 157 161 161 167 184 199
30 12 343 7 336 263 273 294 302 321 335 340 349 344 358 23 24 8 347 344 12 30 34 16 1 357 354 1 39 51 17 18 9 356 350 348 346 352 346 331 347 3 360 349 334 352 71 290 254 195 221 251 262 285 2 38 7 344 330 310 296 294 292 277 271 254 198 213 216 175 177 206 213 194 204 208 192 174 168 155 147 149 156 164 167 174 189 200
25 354 333 353 333 296 274 298 316 335 349 2 12 350 3 35 26 359 1 27 20 13 19 10 350 346 349 358 34 50 30 66 48 349 344 342 344 2 349 320 330 337 337 339 329 342 19 319 300 25 37 289 286 296 28 31 26 356 323 307 304 321 336 337 320 312 307 287 177 151 169 219 240 204 203 193 142 127 137 148 154 157 163 168 174 184 192 201
360 300 322 347 312 324 326 326 343 2 4 13 13 352 6 32 23 360 359 32 39 23 6 350 340 342 342 351 27 36 358 46 60 312 304 308 310 308 286 283 309 319 319 324 322 334 19 343 330 37 47 304 295 9 30 26 31 4 320 305 318 343 343 330 318 308 308 52 92 117 155 220 236 204 176 140 134 142 155 159 158 163 171 173 181 191 194 200
1 331 347 23 251 336 357 345 356 25 23 2 359 0 15 19 13 17 10 355 12 15 353 330 328 337 342 349 2 343 304 315 282 269 259 251 266 267 255 263 275 280 283 300 305 299 11 12 338 32 53 291 295 1 51 50 29 340 282 268 296 315 313 312 307 296 278 140 135 162 195 211 201 165 148 150 159 165 167 163 162 169 179 182 187 193 196 201
Height
801 800 799 798 797 796 794 793 792 791 790 789 787 787 785 784 783 782 781 779 779 777 777 776 776 776 775 774 773 772 771 770 769 769 768 761 759 761 762 763 764 765 765 766 766 767 766 767 764 765 770 771 770 767 765 765 765 775 789 800 805 804 800 793 792 792 791 794 793 790 787 791 795 790 783 783 786 789 790 789 786 783 780 781 782 781 782 785
801 800 799 797 796 795 794 793 791 790 789 788 787 786 784 783 782 780 779 778 777 776 776 775 775 775 774 773 772 771 770 768 768 767 762 757 758 760 761 762 763 764 764 765 764 764 767 766 763 765 771 774 771 765 765 763 763 777 789 797 800 796 789 781 782 783 784 790 789 788 787 787 790 788 784 789 795 791 793 793 788 788 785 781 780 781 783 784
801 800 798 797 796 795 794 792 791 790 788 787 786 785 783 782 781 779 778 777 776 775 775 774 774 773 773 773 771 770 769 767 767 763 756 755 757 758 759 761 762 763 763 763 762 763 765 764 763 767 772 775 770 766 768 764 764 771 781 795 794 784 782 777 776 778 778 782 786 788 787 787 786 784 785 791 796 794 796 795 792 793 789 784 781 781 783 784
800 799 798 796 795 794 793 791 790 789 788 787 785 784 783 781 780 778 777 776 774 774 773 773 773 773 773 771 771 770 767 769 767 758 754 755 755 756 758 760 760 762 762 762 761 762 764 763 764 767 772 776 768 765 769 764 763 767 775 789 785 777 782 778 773 774 775 777 782 787 787 789 785 783 787 791 797 799 796 791 789 790 787 784 782 781 782 784
799 798 797 796 795 793 792 791 789 788 787 786 784 783 781 780 779 777 776 775 773 773 772 772 772 772 772 770 771 768 769 779 769 753 755 755 754 756 757 758 760 761 761 761 761 762 763 763 764 767 773 775 769 768 769 757 756 768 772 774 774 775 781 777 771 772 774 776 780 785 787 787 783 785 787 789 796 797 789 785 783 783 782 782 781 780 782 783
799 797 796 795 794 793 791 790 789 787 786 785 784 782 780 779 777 776 774 773 772 772 771 772 771 771 771 770 771 768 772 781 763 752 756 753 754 755 756 758 759 760 761 761 760 761 763 762 767 773 774 774 772 771 767 754 752 771 778 770 770 771 774 774 770 770 771 776 781 783 781 780 785 788 785 786 789 785 779 778 779 779 779 779 779 779 781 783
798 797 796 794 793 792 790 789 788 786 785 784 783 781 779 778 776 775 773 772 771 770 771 771 771 771 770 770 770 769 772 771 755 753 756 752 755 754 756 758 757 760 759 760 761 762 763 765 771 774 776 777 774 770 765 755 751 769 781 773 770 767 767 768 767 767 768 773 776 776 778 781 787 788 784 785 782 776 774 774 776 777 777 778 779 779 781 781
797 796 795 794 792 791 789 788 786 785 784 783 782 780 779 777 775 774 772 771 770 770 770 770 771 770 770 770 770 771 772 763 752 753 754 753 755 753 756 756 757 759 757 759 760 760 763 767 771 770 777 777 771 769 764 760 758 767 777 772 768 765 763 763 765 768 769 771 772 774 780 781 782 782 783 784 779 775 774 774 776 777 778 779 780 780 780 780
797 796 794 793 791 790 788 787 785 784 783 781 781 779 777 776 774 773 771 770 769 770 769 769 770 769 771 769 770 774 767 754 751 753 753 753 754 754 755 755 757 758 757 759 758 761 765 768 768 766 774 772 766 768 763 767 771 768 771 768 766 766 762 763 767 770 770 771 772 776 782 781 776 778 784 781 776 775 773 775 777 778 780 780 780 780 780 781
797 795 794 792 790 789 787 786 784 783 781 780 779 778 777 775 773 772 770 769 769 769 769 770 770 769 771 768 772 776 760 750 753 752 753 754 753 754 755 755 756 756 757 758 758 760 762 764 762 758 766 767 765 767 763 768 770 764 765 764 764 766 764 766 769 770 770 772 773 778 784 781 775 781 789 780 773 774 775 778 778 779 781 780 780 780 779 781
796 794 793 791 789 788 786 785 783 781 780 779 778 777 775 774 772 771 770 769 769 769 769 769 769 770 770 768 775 773 754 750 753 751 753 753 753 754 754 755 755 756 757 757 758 757 757 758 755 758 766 766 765 767 762 760 760 761 764 768 770 769 769 769 770 771 772 775 774 775 783 782 779 784 786 777 772 773 777 781 780 780 781 780 781 780 779 781
796 794 792 790 789 787 785 784 781 780 779 777 777 775 774 773 771 771 770 769 769 769 769 769 770 769 769 770 771 762 750 751 752 751 753 752 753 754 754 755 754 755 756 756 756 754 756 755 754 764 767 763 769 772 763 754 756 760 763 775 780 776 778 774 772 772 771 776 772 773 790 793 787 784 777 772 771 773 777 781 781 781 781 780 781 780 780 780
795 793 792 790 788 786 784 782 780 779 777 777 776 774 774 772 770 770 769 769 769 769 769 769 769 768 771 770 759 750 751 753 752 752 752 752 754 754 754 755 754 755 755 756 756 754 756 755 755 761 759 762 772 768 759 754 758 763 763 774 785 788 789 777 772 773 771 775 769 775 800 802 789 779 772 769 769 774 780 781 780 780 780 781 781 781 781 780
794 793 791 789 787 785 783 781 780 778 776 775 774 774 773 771 771 770 769 770 769 769 769 769 770 769 771 765 749 747 751 751 753 752 751 752 753 754 754 755 755 755 755 755 755 754 755 753 753 756 755 760 764 759 761 764 764 769 772 776 786 798 795 777 773 775 776 776 768 777 801 800 786 777 771 768 768 773 780 780 779 779 780 780 780 781 781 779
793 792 790 788 786 784 782 780 778 776 775 774 773 773 771 771 770 769 769 770 769 770 769 769 770 769 772 764 747 746 748 749 751 750 750 751 752 754 753 754 755 754 755 755 754 755 754 753 756 762 761 758 760 768 776 777 772 773 784 790 789 795 794 780 773 773 776 776 771 781 798 795 784 776 771 769 768 772 778 779 777 778 779 780 779 780 780 779
792 791 789 787 785 783 781 779 777 775 773 772 772 772 770 770 770 769 770 769 769 770 769 771 769 770 775 764 748 746 746 747 748 748 749 749 750 752 752 753 753 753 755 754 754 754 753 755 759 762 763 765 771 780 786 788 784 779 787 797 792 792 796 787 776 769 770 775 777 783 791 791 783 774 771 771 769 772 777 778 776 777 778 778 779 779 779 779
792 790 787 786 784 782 780 778 776 773 772 772 771 770 770 769 769 769 769 769 770 769 769 771 769 772 770 755 749 750 745 745 746 747 749 748 749 751 751 753 753 753 753 753 754 754 755 759 763 764 767 773 777 783 796 803 798 789 787 791 789 790 796 792 782 772 769 775 780 783 785 785 779 773 773 772 769 773 777 778 776 777 778 778 778 777 778 778
791 788 786 784 782 780 778 776 774 772 771 770 770 770 769 769 769 769 769 769 769 769 771 770 770 778 771 755 753 750 743 744 745 745 748 748 749 750 751 752 752 754 758 760 759 759 762 764 768 775 778 779 780 787 802 803 793 791 789 789 789 790 793 790 782 774 771 776 780 785 789 784 779 776 774 771 770 773 775 775 775 776 777 778 777 776 777 777
789 787 785 783 781 779 777 775 773 771 769 769 769 769 768 768 768 768 769 769 770 771 771 769 768 774 769 755 748 744 741 743 744 745 746 746 748 749 750 751 752 757 767 774 771 766 768 772 778 786 787 785 783 784 790 786 781 785 786 787 788 789 791 783 775 767 766 779 783 783 786 784 782 779 775 773 771 773 774 773 775 776 776 777 777 776 775 776
788 786 783 781 779 777 775 773 772 770 768 768 768 768 769 771 772 773 770 768 767 762 761 761 760 761 757 749 744 743 742 743 745 745 745 746 747 749 751 753 757 764 771 778 777 768 769 783 790 788 785 780 777 776 775 773 774 779 783 784 782 783 784 776 771 766 763 779 784 778 782 782 781 779 774 774 774 775 777 776 777 777 776 776 776 776 774 773
786 784 781 779 778 775 774 772 770 769 768 768 768 768 770 770 775 775 770 765 758 753 755 753 753 755 750 745 743 742 745 747 745 743 745 745 745 755 759 758 768 776 773 774 776 769 772 789 789 779 776 771 770 770 770 772 774 778 782 783 780 776 775 770 767 765 763 775 779 776 784 784 779 779 775 774 777 777 776 776 778 777 777 777 776 776 774 772
784 782 779 778 775 774 772 770 769 767 767 767 767 768 766 763 765 765 765 767 757 748 752 750 751 753 744 742 742 741 750 755 752 746 743 744 749 760 764 763 774 779 772 773 778 780 786 790 779 769 768 768 768 767 769 774 775 778 778 779 780 772 771 770 766 765 765 773 775 775 785 785 779 779 777 775 776 775 773 772 773 773 776 777 775 775 774 773
783 780 778 775 773 772 770 768 767 765 765 766 766 766 762 758 759 759 761 769 761 748 748 750 752 753 746 744 740 741 753 757 757 751 741 745 753 758 764 768 774 776 775 778 783 790 794 782 765 761 764 767 770 767 769 775 774 774 773 777 777 769 771 776 771 769 768 770 773 773 783 788 784 782 778 776 774 772 772 770 769 769 771 772 770 771 772 773
781 778 776 773 771 770 768 767 765 764 764 764 764 761 759 758 758 759 761 768 767 751 742 742 744 747 745 741 736 742 753 750 751 749 740 746 754 756 762 767 773 777 776 775 778 786 785 766 753 758 763 767 772 769 770 776 776 769 765 770 771 764 767 771 770 771 771 772 770 772 788 795 789 788 784 777 775 773 771 771 770 769 767 768 767 768 770 771
778 776 774 771 770 768 766 766 764 764 764 762 762 758 757 758 757 759 763 773 774 755 740 738 740 740 734 735 737 738 745 746 742 741 736 740 750 756 761 761 769 779 776 773 778 784 776 756 751 760 763 765 771 772 768 770 774 771 761 758 760 759 762 766 768 775 784 787 773 772 800 808 793 790 789 781 779 776 773 772 771 769 768 769 768 768 770 770
776 774 771 770 768 765 765 765 763 765 764 761 760 757 757 757 757 758 765 784 784 760 747 745 744 740 732 736 735 733 751 752 734 731 734 737 740 747 761 762 763 771 770 768 773 774 764 749 750 759 761 763 770 770 761 758 770 776 759 749 752 753 759 766 771 780 791 792 776 770 796 812 800 793 789 783 781 778 776 775 772 770 771 770 769 768 770 771
774 772 770 769 766 764 764 763 764 765 763 761 759 759 757 756 758 756 769 799 791 757 750 750 744 738 732 733 730 741 766 755 733 733 731 735 737 740 760 767 764 767 759 764 777 769 755 751 753 754 756 761 766 765 754 749 768 774 753 745 751 751 759 767 770 777 782 781 779 773 781 803 807 795 788 786 785 783 780 780 776 773 772 771 769 768 768 770
772 770 768 767 765 765 763 763 765 762 762 761 757 759 758 756 758 759 782 811 786 746 746 747 737 731 728 729 729 741 752 742 747 747 728 732 740 742 762 766 765 767 756 769 787 769 752 757 756 752 756 761 758 753 744 746 763 761 743 744 749 749 757 762 765 773 776 781 790 784 778 800 811 795 787 789 790 789 785 780 779 775 773 771 770 769 767 767
770 768 766 765 764 764 763 764 763 761 761 759 757 758 756 755 758 766 792 803 769 740 742 740 736 735 733 736 737 739 739 739 751 747 730 737 739 742 759 758 758 765 757 765 778 765 752 750 746 747 755 756 748 741 738 746 756 747 738 743 747 749 754 758 764 770 776 786 793 787 780 798 812 798 790 795 793 789 784 779 777 774 771 770 769 769 767 766
767 766 764 763 763 762 763 763 761 761 760 758 759 757 754 758 767 786 806 792 760 747 743 741 743 742 741 749 750 745 744 744 744 740 741 744 740 741 748 746 750 762 761 761 765 759 747 737 736 741 744 742 738 737 736 740 743 739 741 747 750 755 756 761 766 768 782 792 787 782 775 786 809 803 791 790 783 777 779 779 777 773 770 769 768 768 767 766
765 764 762 761 762 762 762 761 760 760 759 758 759 755 759 769 780 802 803 771 756 756 747 747 748 742 745 755 757 751 749 749 744 748 754 751 751 754 754 754 758 765 771 769 764 756 747 743 741 735 730 730 735 738 736 733 734 740 750 756 762 768 767 772 775 774 793 799 784 779 773 779 804 801 785 779 769 766 773 775 774 773 771 768 767 768 767 765
763 761 760 759 760 760 761 761 759 760 759 758 758 757 769 784 792 800 785 760 764 765 751 752 750 745 748 753 755 753 752 754 749 752 758 758 762 761 761 766 767 777 787 779 771 764 755 750 743 735 727 726 738 747 744 738 737 744 755 764 778 789 790 794 794 793 803 801 785 779 775 783 797 787 772 770 766 765 767 766 768 770 770 768 766 767 766 764
761 759 758 758 758 759 759 759 759 760 759 758 759 763 777 796 798 789 775 767 769 757 745 748 746 745 751 755 757 752 751 756 751 752 755 757 764 763 760 759 757 773 785 779 778 777 769 754 741 741 735 724 734 751 757 754 748 750 758 767 782 797 809 816 811 807 809 799 783 775 777 792 798 779 765 765 764 763 762 761 763 764 765 766 765 765 765 765
759 758 758 757 757 758 758 759 759 759 759 758 764 773 788 802 793 777 773 768 757 747 744 746 746 748 752 755 755 748 754 759 749 751 757 758 768 769 764 759 754 761 770 776 780 780 786 777 750 744 741 728 731 740 745 748 750 751 749 758 773 783 798 810 807 807 809 798 786 779 784 798 797 777 762 760 760 760 760 761 761 762 763 763 763 763 764 765
758 758 758 757 757 757 757 758 759 759 760 760 770 785 798 803 789 776 773 762 751 750 747 742 745 757 758 753 749 741 749 757 749 751 760 761 767 767 762 759 755 756 766 780 779 770 783 779 745 732 730 725 731 729 726 740 755 752 744 757 770 766 771 785 788 790 796 799 795 790 791 791 781 768 760 761 763 761 762 763 762 764 764 763 764 764 764 765
758 757 757 757 757 757 757 758 758 759 760 764 779 792 796 791 780 773 765 754 753 754 753 750 751 763 768 760 755 747 743 748 751 756 761 760 761 759 755 750 746 750 759 770 772 766 775 767 736 730 731 722 725 725 721 736 753 753 753 761 756 745 753 774 784 781 785 803 804 796 796 789 779 774 765 764 767 765 765 765 764 765 765 764 765 764 764 763
758 757 757 756 756 757 757 758 758 759 761 769 784 790 785 776 767 763 756 749 750 750 757 769 764 764 773 769 762 756 749 749 753 758 761 761 758 752 749 743 737 740 743 750 759 757 765 766 740 732 740 726 715 720 721 722 733 749 760 752 739 741 750 762 783 790 794 811 809 798 800 798 794 789 774 769 772 770 768 767 766 767 766 766 765 763 763 760
758 757 757 755 756 757 757 758 758 760 764 774 785 785 778 771 760 755 751 747 748 749 760 775 769 762 771 773 767 757 753 759 760 758 760 762 756 743 742 741 734 732 729 736 751 748 753 770 751 729 736 729 714 725 737 727 721 733 741 733 738 762 767 764 780 793 800 815 813 802 802 799 794 787 776 774 774 770 770 769 767 767 765 766 764 762 762 759
758 760 760 756 755 756 758 759 759 762 770 781 789 783 774 767 756 749 746 744 747 753 761 768 764 763 766 767 767 759 754 761 762 759 760 762 756 739 733 736 733 728 724 730 746 744 745 769 764 734 727 730 726 737 752 745 729 726 730 732 739 755 763 765 772 778 791 811 816 811 809 797 783 774 769 770 768 767 769 769 767 765 763 763 762 760 760 759
759 764 764 756 756 758 758 759 762 769 778 782 784 778 769 765 756 745 741 741 744 751 759 761 759 764 764 760 762 759 755 757 758 758 757 753 751 741 729 729 730 726 722 727 737 740 743 761 767 746 730 737 745 744 745 746 741 739 743 747 746 746 751 758 764 766 778 800 811 814 814 795 770 760 760 760 761 761 763 764 765 763 761 761 760 758 758 758
762 769 767 756 757 758 757 764 770 775 780 780 778 773 767 762 755 747 740 737 740 742 746 752 755 758 760 759 760 757 756 757 754 755 754 747 747 745 729 721 724 722 725 734 737 739 745 754 761 756 746 749 748 734 729 734 736 739 744 746 748 749 754 767 777 770 767 782 794 802 807 787 759 752 752 752 755 756 757 760 761 760 759 759 758 757 757 757
768 773 767 757 758 757 759 771 774 773 777 777 771 766 761 756 753 751 742 737 741 741 740 746 750 751 754 755 755 753 754 756 753 753 753 746 744 741 726 716 718 718 722 735 736 729 734 745 755 758 752 747 739 727 726 728 725 729 736 738 741 745 753 769 781 774 769 778 782 789 798 780 753 747 749 748 751 752 753 756 758 759 758 757 757 757 757 757
774 773 762 757 759 756 765 779 777 774 776 769 762 758 754 752 752 750 745 742 745 745 746 749 749 750 752 750 751 753 753 754 752 749 748 746 739 732 724 718 720 720 720 730 732 725 730 746 757 760 752 741 731 725 724 723 724 735 739 736 739 743 745 753 761 763 772 781 781 790 800 780 752 746 747 748 749 750 752 753 756 759 759 757 757 757 757 756
777 774 763 760 760 759 772 785 783 780 776 766 762 759 752 750 751 751 751 749 747 748 752 752 749 751 750 747 749 751 752 755 753 746 745 748 739 728 724 723 722 723 722 724 726 726 738 752 759 769 774 766 756 750 744 736 735 743 744 738 738 738 739 746 750 756 772 778 774 785 795 776 754 748 748 747 749 750 752 752 753 757 758 758 758 758 757 756
777 776 769 763 760 762 773 779 780 782 778 771 770 766 760 756 752 751 752 749 745 747 752 751 747 747 747 748 751 751 750 753 755 750 750 752 742 730 728 728 726 726 724 718 714 719 737 750 753 770 789 793 788 781 767 755 748 746 745 741 737 734 738 747 754 764 775 774 769 775 779 769 758 754 751 750 751 752 753 753 753 754 756 757 758 758 757 755
780 783 780 773 766 767 773 772 774 780 779 777 776 770 769 767 757 749 750 751 749 747 749 750 748 750 753 754 758 761 758 755 756 758 758 759 752 739 733 730 728 729 727 721 716 720 736 745 747 758 771 776 776 768 755 753 755 754 751 746 741 736 736 745 759 767 768 770 772 766 761 763 764 760 755 753 752 752 752 753 754 755 755 756 756 757 755 754
784 789 791 790 783 779 778 775 776 780 778 777 779 773 771 772 766 758 755 756 755 751 751 755 757 763 765 762 764 769 767 761 761 762 763 762 756 745 738 733 730 731 729 726 724 728 739 748 747 749 753 753 754 752 747 749 754 754 752 750 746 741 740 748 757 757 757 769 775 763 755 760 761 757 755 753 750 751 751 751 752 754 754 754 754 755 754 753
789 792 792 794 794 791 789 784 781 782 779 776 775 773 772 774 774 772 766 759 757 758 761 766 766 768 769 765 767 773 772 769 770 768 766 764 759 752 745 739 735 735 734 734 732 732 743 750 745 744 747 745 743 744 744 746 748 749 750 750 748 746 747 750 750 746 749 759 760 755 756 755 749 751 752 746 744 745 746 747 748 750 752 752 753 754 754 753
795 797 794 792 795 796 793 788 783 783 781 777 775 774 776 779 780 777 770 766 767 766 769 777 776 770 768 765 767 774 776 778 780 775 769 768 765 763 760 754 744 738 740 744 739 735 744 751 744 742 746 744 740 741 741 744 747 748 748 748 748 747 746 746 745 740 741 746 743 745 753 747 739 743 742 736 736 739 741 745 746 748 751 751 752 753 752 752
802 805 802 799 798 795 791 787 784 784 782 780 782 779 777 781 783 778 771 774 780 776 772 778 778 771 770 768 770 775 775 775 779 776 770 771 769 767 768 764 755 748 747 749 746 740 746 754 747 744 751 751 744 741 740 744 750 753 751 747 744 745 743 743 743 739 738 745 746 747 754 748 736 734 734 733 736 739 743 746 746 747 749 749 751 751 750 751
806 806 805 805 803 795 792 789 785 786 787 787 788 785 781 784 784 780 775 773 779 780 777 777 777 772 770 770 772 775 770 768 771 768 765 767 767 765 765 761 758 758 756 753 751 746 749 756 750 749 762 762 748 744 746 745 749 755 753 748 744 746 747 745 743 740 739 747 753 756 759 749 734 731 735 736 738 740 743 744 744 746 747 747 748 748 747 749
805 804 802 805 804 797 796 794 790 793 796 793 790 787 786 786 781 780 783 777 772 775 775 773 773 773 774 774 774 771 765 762 762 759 757 758 756 755 757 754 753 758 758 755 754 750 751 757 756 758 770 766 753 751 750 751 763 767 754 745 743 744 745 744 741 736 734 740 748 751 747 737 729 732 737 739 740 742 742 741 742 744 744 744 744 743 745 745